Location: Härggis
(46.9540°N, 8.4897°E)
Time: 21:01:43
(UTC+00:00)

Cosmos 1455 - Pass Details

Date: 27 May 2022
Orbit: 492 x 514 km, 82.5° (Epoch: 03 July)

Event Time Altitude Azimuth Distance (km) Brightness Sun altitude
Rises 00:28:10 0° 2° (N) 2,587 7.2 -20.2°
Reaches altitude 10° 00:30:36 10° 16° (NNE) 1,698 6.0 -20.1°
Maximum altitude 00:33:40 24° 72° (ENE) 1,062 4.1 -20.0°
Enters shadow 00:35:53 14° 119° (ESE) 1,431 4.3 -19.8°
